Theta_e
300 301 299 297 298 300 304 305 298 291 289 289 288 288 288 287 286 286 285 285 284 283 283 282 281 281 280 279 279 279 279 278 279 278 277 277 276 276 275 274 274 273 273
299 297 299 303 307 305 301 293 290 289 288 288 288 288 287 286 286 285 285 284 284 283 282 281 281 280 279 279 279 279 278 277 277 277 276 276 275 275 274 274 273 273 273
301 306 307 307 303 296 291 291 290 289 288 287 287 287 287 286 286 285 284 284 283 282 282 281 281 280 279 279 279 278 277 277 276 276 276 275 275 274 273 273 272 272 272
303 305 303 301 296 292 291 290 289 288 287 287 287 286 286 286 285 285 284 283 282 282 281 281 280 280 279 279 278 278 277 276 275 275 275 274 274 273 272 272 272 272 271
303 302 299 295 293 291 291 290 288 288 287 286 286 285 285 285 284 284 283 283 282 281 281 280 280 279 279 278 278 277 277 276 275 275 274 273 273 272 271 271 271 271 271
300 297 295 293 292 291 290 289 288 287 286 286 285 284 284 284 284 283 282 282 281 281 280 280 279 279 278 278 277 277 276 275 275 273 273 273 272 271 271 271 270 270 269
297 295 293 292 291 290 290 289 288 287 286 285 284 284 283 283 283 282 281 281 281 280 280 279 279 278 278 277 277 276 275 274 274 273 273 272 271 270 270 270 269 268 267
295 294 293 292 291 290 289 288 287 286 285 284 284 283 283 282 282 281 281 280 280 280 280 279 279 278 277 277 277 276 274 273 272 272 272 270 270 270 269 269 267 266 265
296 295 293 292 291 289 289 288 286 285 284 284 283 283 283 282 281 281 281 280 280 279 279 279 278 277 277 277 276 275 274 272 271 271 271 269 269 268 268 266 265 264 264
297 296 293 291 290 290 289 288 287 285 285 284 283 283 282 282 281 280 280 280 279 279 279 278 277 277 277 277 276 274 273 272 272 271 270 269 267 267 266 265 264 263 263
296 294 292 291 291 290 289 288 286 285 284 283 282 282 281 281 280 280 280 280 279 278 278 278 277 277 276 276 275 274 272 272 271 270 267 267 266 266 264 264 263 262 262
295 293 292 292 291 290 288 287 286 284 283 282 281 281 280 280 280 279 279 280 279 278 278 277 276 276 276 275 274 272 272 271 269 267 266 265 264 263 263 263 263 262 262
293 293 292 291 290 289 288 286 284 283 282 281 280 280 280 280 279 278 278 279 280 279 278 277 276 276 275 273 271 270 270 268 267 266 264 264 263 262 263 262 262 261 262
292 292 291 290 289 288 286 285 283 282 281 280 279 278 279 279 279 278 278 278 279 279 278 277 276 275 273 272 270 269 267 266 265 264 263 263 262 262 262 261 260 260 260
290 290 290 289 288 287 286 285 284 284 282 281 281 280 278 278 280 279 278 278 277 278 277 276 275 273 272 270 268 267 266 266 265 264 263 262 261 261 261 260 260 259 258
288 288 288 287 287 286 285 284 284 283 281 281 280 279 279 279 278 278 278 278 277 276 275 274 273 272 271 268 267 267 266 265 264 262 262 261 260 260 259 260 259 259 257
288 288 287 286 285 284 283 281 279 283 281 281 281 281 281 281 280 279 279 279 278 277 276 274 273 272 270 267 267 266 265 264 263 262 261 261 260 259 259 259 258 258 257
284 284 284 284 283 282 280 279 279 277 277 278 280 280 281 281 281 279 279 279 279 279 276 274 274 272 269 267 266 265 264 263 262 261 261 260 260 258 258 258 258 257 257
281 281 281 281 280 280 279 278 277 276 276 276 277 279 279 279 280 280 279 279 277 276 275 274 273 270 267 266 265 264 263 262 262 261 260 260 259 258 258 258 257 257 257
280 279 279 279 279 278 278 277 276 275 275 275 275 276 277 277 276 278 280 279 277 276 275 273 271 268 266 265 264 263 262 262 261 260 259 259 258 258 257 257 257 256 257
278 278 278 278 277 277 276 275 275 274 274 273 274 275 274 274 274 275 276 277 276 275 273 272 269 267 265 264 263 262 262 261 261 260 260 259 258 257 257 257 256 257 257
278 277 277 276 276 275 275 274 274 273 272 272 272 273 274 275 274 273 274 274 275 274 272 270 267 266 265 264 262 262 262 262 262 261 260 259 258 257 257 257 257 257 257
275 275 275 275 274 274 273 273 272 272 271 271 271 271 272 272 273 273 273 272 271 270 268 267 266 265 263 262 262 262 263 263 262 261 261 259 259 258 257 257 257 257 258
273 273 272 272 272 271 271 271 271 271 270 270 270 270 270 271 271 271 271 270 268 268 267 266 265 263 263 263 263 263 263 263 262 262 261 261 260 259 258 258 258 258 257
270 270 270 270 269 269 269 269 269 269 269 269 269 269 269 269 269 269 269 268 268 266 265 264 263 263 263 263 263 264 263 263 263 263 262 262 261 260 259 259 259 259 258
269 269 268 268 267 267 267 267 267 268 268 268 268 268 268 268 268 268 267 266 265 265 264 263 262 263 263 264 264 264 264 264 264 264 263 262 262 261 261 260 260 259 259
Wind_Speed
30 28 27 26 21 17 13 10 10 11 11 10 9 8 6 6 6 5 6 5 4 5 4 3 3 2 3 5 5 8 10 11 6 16 20 26 24 24 28 31 25 27 29
28 29 23 19 14 12 13 13 12 10 9 8 8 6 6 6 6 5 4 4 4 4 4 3 2 1 3 5 6 10 11 13 12 15 21 21 25 26 28 27 26 26 31
25 24 22 16 15 14 13 13 11 10 10 9 8 7 7 7 6 5 5 5 5 4 4 4 3 1 2 5 6 10 12 16 17 15 18 21 22 23 25 24 26 26 28
23 19 16 15 14 14 13 11 9 10 10 10 9 9 9 8 7 7 7 7 7 6 6 5 4 3 3 4 5 10 12 16 18 16 18 20 20 21 24 27 29 28 33
18 15 15 15 14 15 14 12 12 11 10 9 10 11 10 10 10 10 9 9 9 8 8 7 6 4 3 4 6 10 14 16 14 14 16 17 19 23 25 26 28 32 29
18 18 16 16 16 15 13 13 12 11 11 12 13 13 13 13 13 12 11 10 10 10 10 9 9 7 7 6 6 7 8 12 12 14 15 15 18 22 22 26 25 26 18
20 18 18 16 16 16 14 14 13 13 14 15 15 14 15 15 14 13 12 11 12 12 12 12 10 9 8 8 8 10 14 8 10 12 14 15 20 21 24 24 22 23 24
20 18 17 18 18 17 16 15 15 16 17 17 17 17 17 17 16 15 14 14 13 14 14 13 11 11 9 6 9 13 14 14 13 10 14 20 18 21 20 20 25 25 24
20 20 21 21 20 19 18 17 17 18 19 19 19 19 20 19 18 17 15 17 16 15 15 14 13 12 9 6 11 13 14 14 11 11 16 18 16 16 16 21 22 23 20
24 23 21 21 20 20 19 19 19 21 20 20 22 22 21 21 20 19 17 21 19 17 16 16 14 13 9 8 11 12 12 14 14 19 21 19 18 17 17 16 18 17 18
20 19 21 21 22 21 19 21 22 21 22 23 24 24 24 24 23 22 20 22 22 19 20 19 17 14 11 9 9 11 11 13 15 18 19 18 18 19 20 19 18 16 18
17 18 20 20 21 21 22 22 23 23 23 25 25 27 27 27 25 25 22 22 20 21 22 20 17 14 11 10 9 9 8 14 17 17 16 18 18 20 20 20 19 18 19
15 17 18 18 20 22 23 24 24 24 25 28 28 30 32 29 29 27 25 23 22 21 23 20 17 14 12 11 12 7 13 14 14 14 15 17 18 20 19 21 21 22 23
15 16 18 20 21 22 24 26 27 28 29 31 30 30 32 30 28 27 28 26 24 23 22 18 19 16 16 15 13 13 13 12 12 13 15 16 18 17 20 20 23 26 24
15 17 19 21 23 25 27 29 32 34 33 32 34 32 29 30 33 28 29 31 29 29 24 23 22 20 18 16 15 13 12 11 12 13 14 16 17 17 20 20 22 25 20
19 21 22 24 26 27 29 34 33 34 33 32 29 27 29 28 23 20 22 23 24 23 23 26 24 20 19 16 14 13 12 11 10 11 12 14 15 16 18 21 22 23 23
19 22 23 25 26 27 28 30 30 32 25 25 28 28 26 29 26 20 21 23 23 23 25 29 26 21 18 15 14 13 13 12 12 12 12 13 14 14 16 19 21 22 24
16 19 21 25 26 27 28 29 29 26 25 27 27 25 27 27 25 23 21 22 24 27 26 28 25 20 18 16 14 13 13 13 13 12 12 12 12 13 15 17 19 20 23
17 18 19 22 23 24 25 26 28 27 28 27 30 29 25 25 26 25 26 29 29 29 31 26 22 19 18 16 14 13 13 13 13 13 14 13 13 12 14 15 17 19 20
16 17 19 21 22 23 23 24 24 23 24 24 25 30 27 23 27 27 28 31 31 33 30 27 23 20 18 15 13 13 13 13 13 14 14 13 12 12 13 14 15 19 20
20 20 19 21 21 21 22 24 24 23 22 22 25 27 22 24 24 26 28 30 31 30 26 23 21 19 16 14 13 12 12 12 11 11 11 12 11 12 11 11 14 16 16
21 22 23 23 24 24 25 24 25 24 23 23 25 26 21 23 27 26 31 33 32 28 22 21 20 17 15 13 12 11 10 10 9 10 11 11 11 11 10 11 13 14 14
23 25 27 27 26 26 26 26 27 27 26 26 25 24 25 25 23 29 29 26 24 23 22 20 18 16 13 12 10 9 9 9 9 10 11 11 11 10 9 11 12 13 14
24 25 26 28 29 28 28 28 27 27 27 25 24 25 26 26 24 27 24 20 19 20 19 18 16 13 12 11 9 9 10 10 11 11 10 11 11 10 10 11 11 12 14
27 28 28 29 29 28 27 26 25 25 26 25 24 27 27 24 22 22 21 21 21 20 19 16 13 12 11 10 9 8 7 9 10 9 10 10 8 8 9 11 11 13 14
29 30 30 29 28 26 24 24 23 23 24 25 27 26 25 23 22 22 22 22 20 18 14 13 13 12 11 11 9 7 7 8 9 10 10 11 10 11 11 13 13 15 14
Wind_Direction
150 149 154 152 154 154 161 164 166 153 153 151 145 144 143 138 131 128 125 121 124 121 120 119 110 86 42 29 20 12 7 1 300 307 316 329 330 333 332 338 338 330 329
150 157 152 156 170 180 175 164 156 156 158 162 159 157 162 162 162 161 162 162 171 164 174 170 161 58 3 11 4 4 353 350 323 313 319 326 328 332 330 330 327 332 331
168 167 171 177 178 177 171 167 168 168 175 176 181 181 189 190 193 190 197 197 200 196 201 209 220 278 329 358 352 350 346 340 340 316 311 322 324 329 329 330 332 333 329
178 181 180 181 178 182 181 180 178 185 190 187 194 201 206 208 211 214 213 212 216 215 224 222 234 262 311 337 329 343 338 340 336 321 318 318 327 332 333 333 334 335 329
193 195 190 184 187 194 191 189 193 197 202 202 211 212 217 221 226 225 225 222 223 221 225 233 241 256 261 302 326 339 336 332 323 322 319 326 331 339 340 334 328 326 325
203 199 194 197 199 201 200 201 206 208 213 217 219 221 225 230 233 235 232 232 230 231 230 228 232 238 251 280 303 322 324 320 322 325 320 323 326 331 331 329 327 329 331
202 201 205 206 209 212 212 213 217 220 223 227 227 229 233 235 238 241 241 240 238 236 231 230 227 239 253 280 297 306 314 319 319 316 315 324 325 331 328 326 328 325 314
206 212 215 217 220 221 221 224 227 228 231 234 236 237 238 241 240 242 239 243 243 239 236 237 236 242 246 264 292 302 313 316 325 324 316 324 328 327 330 327 325 321 315
220 225 227 226 226 225 228 231 234 235 237 240 244 244 245 247 243 242 235 242 241 242 238 238 241 244 246 249 283 297 303 314 311 305 317 324 328 330 336 332 342 337 330
229 234 237 235 234 235 239 239 242 243 248 249 250 250 252 252 248 242 234 242 243 241 237 237 241 244 240 258 276 286 294 309 309 311 316 321 330 338 344 344 340 329 326
243 243 239 238 240 244 245 245 247 250 252 251 254 257 256 254 251 244 233 241 246 242 237 237 242 232 243 257 267 274 298 296 292 304 313 322 334 340 341 342 342 331 312
249 244 244 246 247 247 249 253 254 253 253 256 257 259 256 253 252 247 237 236 242 242 241 243 245 237 241 249 253 276 281 267 291 303 316 331 338 334 335 339 337 331 322
255 253 255 255 254 254 253 255 253 253 252 256 255 258 263 261 257 248 243 237 237 238 246 246 248 236 238 249 261 268 265 281 297 311 323 326 327 330 334 339 337 336 334
264 262 260 258 260 259 257 257 256 255 254 256 258 257 265 267 263 255 244 237 232 232 239 230 228 234 252 263 265 266 273 289 303 311 313 316 324 336 338 342 337 341 335
275 271 269 268 267 267 264 265 264 267 265 265 268 267 266 267 270 269 255 240 231 228 231 226 232 242 251 253 257 263 275 288 297 302 308 321 329 334 335 340 341 340 331
281 278 279 279 278 276 276 278 274 273 272 271 263 261 270 270 269 259 243 234 230 225 222 229 235 240 248 249 252 261 273 284 291 299 308 319 327 328 329 331 338 338 326
283 285 285 284 282 281 280 278 280 291 285 271 260 259 258 262 267 253 244 232 231 225 226 229 236 244 247 248 254 263 277 289 293 299 308 316 322 322 323 326 331 330 324
307 300 297 296 296 294 290 288 286 279 284 288 286 269 256 255 251 244 241 237 226 223 232 227 233 245 247 251 255 266 276 282 287 295 302 309 316 318 316 320 324 323 321
326 318 313 306 301 297 294 290 287 281 277 278 285 284 271 252 248 244 233 228 225 220 228 235 241 244 246 250 256 264 271 278 285 293 297 304 309 312 307 310 315 318 316
327 321 315 310 307 303 298 293 288 278 275 273 272 276 278 263 244 239 239 223 224 229 233 235 241 244 244 248 255 262 270 278 284 289 297 300 300 296 295 302 310 315 316
330 327 322 315 307 302 294 289 286 277 270 268 268 279 275 259 246 237 236 229 226 229 231 235 235 237 240 246 252 259 269 278 286 296 299 297 295 287 285 292 303 307 313
326 321 318 314 312 306 299 295 291 282 275 272 273 277 269 258 247 240 236 240 236 235 235 233 234 236 240 243 246 250 259 272 284 291 291 292 287 281 285 293 303 308 315
326 322 319 315 312 307 300 295 290 284 278 276 275 271 275 267 251 247 245 244 239 230 223 225 228 232 234 236 237 243 255 270 284 284 291 293 288 282 281 290 302 307 312
325 320 314 311 310 308 302 296 293 290 284 278 273 270 271 272 264 249 243 227 216 213 216 220 227 225 222 221 229 243 261 273 272 276 283 285 286 284 284 288 294 300 303
329 325 320 316 313 306 300 294 288 285 283 280 275 277 277 270 258 241 230 216 214 210 213 218 219 216 211 218 224 240 263 270 273 269 269 273 277 281 281 284 291 297 300
331 329 326 324 317 309 301 295 291 288 282 283 288 286 278 266 251 236 222 214 209 209 209 214 213 212 215 210 215 239 264 276 263 263 260 259 267 277 281 284 287 288 293